Location: Degersen
(52.2871°N, 9.5716°E)
Time: 08:57:24
(UTC+00:00)

NOSS 2-2 (D) - Pass Details

Date: 20 January 2026
Orbit: 384 x 1700 km, 63.3° (Epoch: 19 February)

Event Time Altitude Azimuth Distance (km) Brightness Sun altitude
Rises 06:30:20 0° 222° (SW) 2,500 6.5 -7.4°
Reaches altitude 10° 06:32:34 10° 221° (SW) 1,525 5.4 -7.1°
Maximum altitude 06:35:48 79° 135° (SE) 406 2.8 -6.6°
Drops below altitude 10° 06:38:48 10° 48° (NE) 1,418 5.8 -6.2°
Sets 06:40:49 0° 47° (NE) 2,302 6.8 -5.9°
